Location: The Saddle
(36.8333°N, 80.3417°W)
Time: 15:54:25
(UTC-05:00)

A-11 Canister half - Pass Details

Date: 18 December 2023
Orbit: 1512 x 1687 km, 47.2° (Epoch: 29 February)

Event Time Altitude Azimuth Distance (km) Brightness Sun altitude
Rises 19:22:48 0° 214° (SSW) 4,638 12.1 -26.3°
Reaches altitude 10° 19:25:54 10° 209° (SSW) 3,661 11.4 -26.9°
Maximum altitude 19:34:43 53° 136° (SE) 1,823 9.1 -28.6°
Enters shadow 19:35:55 50° 112° (ESE) 1,879 9.0 -28.9°
Drops below altitude 10° 19:43:46 10° 63° (ENE) 3,754 - -30.4°
Sets 19:46:58 0° 59° (ENE) 4,763 - -31.1°
